Consulta los datos en tiempo real de la estación meteorológica de Cercs - La Baells
| Hora UTC | 04:15 |
|---|---|
| Temperatura | 19.7 ºC |
| Humedad | 80.7 % |
| Presión | 1020.2 hPa |
| Pluja | 0.0 mm |
| Velocidad viento | 0.1 km/h |
| Dirección viento | SE |
| Temperatura (ºC) | Humedad (%) | Presión (hPa) | Velocidad viento (km/h) | Precipitación (mm) | ||||||||||||
|---|---|---|---|---|---|---|---|---|---|---|---|---|---|---|---|---|
| Hora UTC | Aire | Humedad | Presión | Vel. | Dir. | Vel. Max | Dir. | Intent. máx 5 min. | ||||||||
| 00:05 | 20.6 | 79.0 | 1021.2 | 0.2 | NE | 0.2 | NE | 0.0 | ||||||||
| 00:10 | 20.6 | 79.0 | 1021.2 | 0.2 | NE | 0.2 | NE | 0.0 | ||||||||
| 00:15 | 20.6 | 79.0 | 1021.2 | 0.2 | NE | 0.2 | NE | 0.0 | ||||||||
| 00:20 | 20.7 | 78.6 | 1021.2 | 1.2 | SE | 1.2 | SE | 0.0 | ||||||||
| 00:25 | 20.7 | 78.5 | 1021.2 | 1.4 | SSE | 1.4 | SSE | 0.0 | ||||||||
| 00:30 | 20.8 | 77.9 | 1021.2 | 1.7 | SSE | 1.7 | SSE | 0.0 | ||||||||
| 00:35 | 20.8 | 77.8 | 1021.2 | 1.8 | SSE | 1.8 | SSE | 0.0 | ||||||||
| 00:40 | 20.8 | 77.7 | 1021.2 | 2.2 | SE | 2.2 | SE | 0.0 | ||||||||
| 00:45 | 20.9 | 77.7 | 1021.2 | 2.3 | SE | 2.3 | SE | 0.0 | ||||||||
| 00:50 | 20.8 | 77.8 | 1021.2 | 1.8 | SE | 2.3 | SE | 0.0 | ||||||||
| 00:55 | 20.8 | 77.8 | 1021.2 | 1.6 | SE | 2.3 | SE | 0.0 | ||||||||
| 01:00 | 20.7 | 78.2 | 1021.2 | 2.2 | SE | 2.3 | SE | 0.0 | ||||||||
| 01:05 | 20.7 | 78.2 | 1021.2 | 2.3 | SE | 2.3 | SE | 0.0 | ||||||||
| 01:10 | 20.7 | 78.4 | 1021.2 | 1.7 | SE | 2.3 | SE | 0.0 | ||||||||
| 01:15 | 20.7 | 78.4 | 1021.2 | 1.6 | SE | 2.3 | SE | 0.0 | ||||||||
| 01:20 | 20.6 | 79.0 | 1021.2 | 0.4 | ESE | 2.3 | SE | 0.0 | ||||||||
| 01:25 | 20.6 | 79.1 | 1021.2 | 0.1 | E | 2.3 | SE | 0.0 | ||||||||
| 01:30 | 20.5 | 79.5 | 1021.2 | 0.0 | NNE | 2.3 | SE | 0.0 | ||||||||
| 01:35 | 20.5 | 79.6 | 1021.2 | 0.0 | N | 2.3 | SE | 0.0 | ||||||||
| 01:40 | 20.4 | 79.9 | 1021.2 | 0.0 | SSW | 2.3 | SE | 0.0 | ||||||||
| 01:45 | 20.4 | 79.9 | 1021.2 | 0.0 | WSW | 2.3 | SE | 0.0 | ||||||||
| 01:50 | 20.4 | 80.1 | 1021.2 | 0.2 | SE | 2.3 | SE | 0.0 | ||||||||
| 01:55 | 20.4 | 80.1 | 1021.2 | 0.2 | E | 2.3 | SE | 0.0 | ||||||||
| 01:55 | 20.4 | 80.1 | 1021.2 | 0.2 | E | 2.3 | SE | 0.0 | ||||||||
| 01:55 | 20.4 | 80.1 | 1021.2 | 0.2 | E | 2.3 | SE | 0.0 | ||||||||
| 02:15 | 20.3 | 80.5 | 1021.2 | 0.0 | NE | 2.3 | SE | 0.0 | ||||||||
| 02:20 | 20.3 | 80.6 | 1021.2 | 0.1 | WSW | 2.3 | SE | 0.0 | ||||||||
| 02:25 | 20.3 | 80.6 | 1021.2 | 0.1 | WNW | 2.3 | SE | 0.0 | ||||||||
| 02:30 | 20.3 | 80.9 | 1021.2 | 0.1 | WNW | 2.3 | SE | 0.0 | ||||||||
| 02:35 | 20.3 | 81.0 | 1021.2 | 0.0 | WNW | 2.3 | SE | 0.0 | ||||||||
| 02:40 | 20.3 | 81.5 | 1021.2 | 0.2 | NW | 2.3 | SE | 0.0 | ||||||||
| 02:45 | 20.3 | 81.6 | 1021.2 | 0.2 | NW | 2.3 | SE | 0.0 | ||||||||
| 02:50 | 20.3 | 81.7 | 1020.4 | 0.2 | WNW | 2.3 | SE | 0.0 | ||||||||
| 02:55 | 20.3 | 81.7 | 1020.2 | 0.1 | WNW | 2.3 | SE | 0.0 | ||||||||
| 03:00 | 20.3 | 81.8 | 1020.2 | 0.2 | W | 2.3 | SE | 0.0 | ||||||||
| 03:05 | 20.3 | 81.8 | 1020.2 | 0.2 | W | 2.3 | SE | 0.0 | ||||||||
| 03:10 | 20.3 | 82.5 | 1020.2 | 0.2 | W | 2.3 | SE | 0.0 | ||||||||
| 03:15 | 20.3 | 82.7 | 1020.2 | 0.2 | WSW | 2.3 | SE | 0.0 | ||||||||
| 03:20 | 20.2 | 82.7 | 1020.2 | 0.2 | WNW | 2.3 | SE | 0.0 | ||||||||
| 03:25 | 20.2 | 82.7 | 1020.2 | 0.2 | WNW | 2.3 | SE | 0.0 | ||||||||
| 03:30 | 20.2 | 82.5 | 1020.2 | 0.2 | NW | 2.3 | SE | 0.0 | ||||||||
| 03:35 | 20.3 | 82.5 | 1020.2 | 0.2 | NW | 2.3 | SE | 0.0 | ||||||||
| 03:40 | 20.2 | 82.9 | 1020.2 | 0.2 | NW | 2.3 | SE | 0.0 | ||||||||
| 03:45 | 20.2 | 83.0 | 1020.2 | 0.2 | NW | 2.3 | SE | 0.0 | ||||||||
| 03:50 | 20.1 | 82.0 | 1020.2 | 0.1 | NW | 2.3 | SE | 0.0 | ||||||||
| 03:55 | 20.1 | 81.8 | 1020.2 | 0.1 | NW | 2.3 | SE | 0.0 | ||||||||
| 04:00 | 20.0 | 80.9 | 1020.2 | 0.0 | SE | 2.3 | SE | 0.0 | ||||||||
| 04:05 | 20.0 | 80.7 | 1020.2 | 0.0 | ESE | 2.3 | SE | 0.0 | ||||||||
| 04:10 | 19.7 | 80.7 | 1020.2 | 0.1 | SE | 2.3 | SE | 0.0 | ||||||||
| 04:15 | 19.7 | 80.7 | 1020.2 | 0.1 | SE | 2.3 | SE | 0.0 | ||||||||
| Máxima | 20.9 | 83.0 | 1021.2 | 2.3 | SE | 2.3 | SE | 0.0 | ||||||||
| Mínima | 19.7 | 77.7 | 1020.2 | |||||||||||||
| Total | 0.0 | |||||||||||||||